Content
SEND FEEDBACK

Daily
Averages
Monthly
Summary
United States of America

RAPID CITY, SOUTH DAKOTA


Home > North America > United States > South Dakota
Elevation: 963 meters     Latitude: 44 03N     Longitude: 103 04W

WEATHER
 
SELECT A DAY
Number of Records: 200,329;   Date Range: 1/1/95 - 7/29/14
 
SHARE

PRINT THIS DATA

[ ← Previous Day ]
WEATHER ALMANAC - 22 FEBRUARY, 2013
[ Next Day → ]
[ °F ]   °C
Weather ElementAverageHighLow
Temperature-5.9 °C2.2 °C (3:52 pm)-11 °C (12:30 am)
Dewpoint-8.8 °C-3.9 °C (12:52 pm)-12.8 °C (12:52 am)
Humidity81 %93 % (8:07 am)59 % (3:52 pm)
Barometer1014.6 hPa1018.3 hPa (7:52 am)1011.2 hPa (11:52 pm)
Wind Speed3.7 km/h14.8 km/h (3:52 pm)
Weather ElementAverage
Visibility14.2 km
Wind DirectionENE (54.8 °)

Weather ElementTotal
Precipitation---
Heating Degree Days22.7 (Base 18.3)
Averaged from 31 records on 22 February, 2013
WEATHER CONDITIONS BREAKOUT
WIND DIRECTION BREAKOUT
WEATHER BY HOUR - 22 FEBRUARY, 2013
[ °F ]   °C
Local TimeTemperatureDewpointHumidityBarometerVisibilityWind DirectionWind SpeedGust SpeedPrecipitationEventsConditions
12:30 AM-11 °C-12 °C92 %1012.9 hPa14.5 kmSE (130°)7.4 km/h0 mmScattered Clouds
12:52 AM-10.6 °C-12.8 °C84 %1017.9 hPa9.7 kmCalm0 mmMostly Cloudy
1:49 AM-9 °C-11 °C86 %1012.5 hPa16.1 kmCalmOvercast
1:52 AM-9.4 °C-11.1 °C88 %1017.6 hPa16.1 kmCalmOvercast
2:52 AM-8.9 °C-10.6 °C88 %1016.9 hPa8 kmCalm0 mmSnowLight Snow
3:52 AM-8.9 °C-10.6 °C88 %1016.9 hPa6.4 kmCalm0 mmSnowLight Snow
4:02 AM-9 °C-11 °C86 %1012.2 hPa9.7 kmCalm0 mmSnowLight Snow
4:26 AM-8 °C-11 °C79 %1011.9 hPa11.3 kmCalm0 mmOvercast
4:37 AM-8 °C-11 °C79 %1011.9 hPa11.3 kmCalm0 mmOvercast
4:52 AM-9 °C-11 °C86 %1012.2 hPa12.9 kmCalmOvercast
5:00 AM-9 °C-11 °C86 %1012.2 hPa12.9 kmCalmOvercast
5:52 AM-8.9 °C-10.6 °C88 %1017.3 hPa16.1 kmCalmOvercast
6:52 AM-8.3 °C-10 °C88 %1017.6 hPa14.5 kmCalmOvercast
7:52 AM-8.3 °C-10 °C88 %1018.3 hPa11.3 kmCalmOvercast
8:07 AM-8 °C-9 °C93 %1013.2 hPa12.9 kmCalmOvercast
8:52 AM-7.2 °C-9.4 °C85 %1017.9 hPa16.1 kmSSE (150°)5.6 km/hOvercast
9:52 AM-6.1 °C-8.3 °C85 %1017.9 hPa16.1 kmSE (140°)5.6 km/hScattered Clouds
10:52 AM-3.9 °C-6.7 °C81 %1017.3 hPa16.1 kmVariable5.6 km/hPartly Cloudy
11:52 AM-2.8 °C-5 °C85 %1016.9 hPa16.1 kmSSE (160°)11.1 km/hPartly Cloudy
12:52 PM0 °C-3.9 °C75 %1015.6 hPa16.1 kmSSE (160°)13 km/hPartly Cloudy
1:52 PM0.6 °C-3.9 °C72 %1014.9 hPa16.1 kmSSE (150°)13 km/hOvercast
2:52 PM1.7 °C-4.4 °C64 %1013.9 hPa16.1 kmSouth (180°)9.3 km/hOvercast
3:52 PM2.2 °C-5 °C59 %1013.5 hPa16.1 kmSSE (150°)14.8 km/hScattered Clouds
4:52 PM1.1 °C-5.6 °C61 %1013.2 hPa16.1 kmSSE (160°)14.8 km/hPartly Cloudy
5:52 PM-1.1 °C-5.6 °C72 %1013.5 hPa16.1 kmSE (140°)7.4 km/hMostly Cloudy
6:52 PM-1.1 °C-6.1 °C69 %1013.2 hPa16.1 kmSouth (180°)5.6 km/hMostly Cloudy
7:52 PM-3.3 °C-7.2 °C75 %1013.5 hPa16.1 kmCalmClear
8:52 PM-5 °C-8.3 °C78 %1013.2 hPa16.1 kmCalmClear
9:52 PM-6.7 °C-8.9 °C85 %1012.9 hPa16.1 kmCalmClear
10:52 PM-8.3 °C-10.6 °C84 %1011.9 hPa16.1 kmCalmClear
11:52 PM-8.3 °C-11.1 °C81 %1011.2 hPa16.1 kmCalmClear
Hourly data recorded from KRAP, located 0 kilometers away from Rapid City, South Dakota







STORIES FROM OUR PARTNERS